Dewpoint
59 58 57 57 60 59 61 62 64 63 62 60 58 59 59 55 53 53 55 56 58 58 58 58 58 58 60 61 63 64 63 63 63
59 58 56 56 58 59 60 61 62 62 61 59 59 59 57 52 53 54 54 56 58 58 57 57 57 58 58 59 60 61 61 61 61
59 57 56 57 57 59 60 60 60 59 58 58 59 58 55 53 53 54 58 58 58 56 57 57 59 57 57 58 58 58 57 58 59
58 57 56 56 58 60 59 58 58 58 58 59 60 58 56 52 53 52 54 58 59 56 57 56 61 59 59 57 56 57 58 59 60
58 58 57 58 60 60 59 58 58 58 60 60 59 57 56 55 55 59 58 59 57 56 56 59 57 61 59 57 61 62 62 62 60
57 56 57 59 60 60 59 59 60 61 60 58 55 54 55 57 61 62 60 58 57 58 57 56 55 58 56 61 60 60 59 58 57
53 56 57 60 60 60 59 61 60 56 52 53 53 53 54 55 58 58 61 59 59 57 56 57 56 58 61 60 58 57 57 56 55
54 53 54 56 57 58 58 59 55 54 52 51 50 51 54 58 58 60 61 59 59 60 58 60 61 60 58 57 56 55 54 54 54
51 50 53 53 54 56 55 55 55 54 53 51 50 52 55 57 59 60 61 62 61 58 61 60 59 58 56 55 54 53 53 53 54
50 50 52 51 54 54 53 54 55 53 52 52 51 52 53 56 59 60 61 61 59 60 60 58 57 56 54 54 53 53 53 52 53
50 49 50 49 51 52 52 54 54 53 52 52 52 51 53 54 57 58 60 61 60 61 59 57 56 54 54 52 50 53 55 54 53
49 48 49 47 48 52 52 53 53 52 51 51 51 50 52 53 54 55 56 58 60 60 58 56 55 55 54 55 56 55 54 52 53
47 46 46 45 47 51 51 51 51 50 49 48 47 49 50 52 53 53 53 54 56 57 57 56 55 55 54 54 53 53 52 55 54
44 43 43 45 46 50 49 49 49 47 45 44 43 45 48 49 51 52 51 52 53 57 57 57 55 54 54 54 53 52 54 53 51
41 41 42 44 46 49 48 47 46 45 42 39 40 41 44 46 46 51 51 51 51 53 52 52 54 55 53 52 53 53 52 52 51
40 40 41 44 45 47 47 45 42 41 40 40 41 41 41 43 44 48 51 50 49 50 51 51 52 53 54 54 53 51 51 51 49
41 40 40 44 45 46 46 43 41 41 40 37 37 36 37 40 42 44 48 49 49 48 49 50 50 50 49 48 48 48 48 48 47
43 41 39 43 45 46 46 44 42 40 40 39 37 36 33 36 39 42 43 47 48 47 47 48 49 48 45 43 43 45 46 46 46
45 42 40 41 45 46 47 45 44 42 40 40 42 43 39 34 34 37 42 43 41 43 43 44 43 41 40 41 41 40 40 42 44
46 45 42 40 43 45 46 45 44 42 40 40 41 41 40 38 35 33 36 43 42 39 37 40 40 38 38 38 37 37 37 39 41
Wind_Speed
16 16 15 14 16 17 18 16 16 19 16 14 15 14 11 8 13 13 12 15 15 16 16 15 16 15 14 14 18 20 20 21 21
16 15 15 16 17 17 19 18 17 17 15 14 14 12 4 12 12 11 13 14 16 17 15 16 15 15 15 15 15 17 18 19 19
16 15 15 16 16 17 18 18 17 16 15 15 14 11 9 11 12 13 15 11 13 15 14 16 15 16 16 18 18 17 17 18 19
16 16 16 16 17 18 17 17 16 16 15 15 13 10 5 12 12 13 13 11 16 17 15 14 16 18 19 19 17 18 17 19 21
15 14 14 15 16 18 17 16 17 17 16 13 12 10 6 14 12 13 14 14 13 15 15 15 17 20 20 18 17 20 23 23 24
17 13 13 14 17 18 17 17 18 17 14 12 10 4 12 11 11 10 14 13 15 16 16 16 16 17 18 20 24 24 24 23 23
13 15 13 16 16 18 16 16 15 14 13 12 8 10 13 10 8 10 12 14 15 17 18 17 17 18 21 23 24 23 23 22 22
14 14 15 16 15 15 14 13 10 10 10 10 9 11 11 9 8 9 10 15 16 17 17 16 21 23 23 23 21 20 20 21 22
14 14 14 15 13 15 12 11 12 11 11 10 12 13 11 9 9 11 8 17 20 18 19 23 23 22 20 20 20 19 19 20 21
13 14 15 13 13 13 12 13 12 12 11 10 11 12 12 10 8 9 14 12 16 20 22 23 20 19 18 19 18 19 18 17 19
12 13 14 13 13 13 13 13 12 11 11 11 10 9 9 11 11 10 11 13 17 21 21 21 20 17 17 17 16 16 17 19 19
13 13 12 12 12 14 13 12 11 11 10 11 8 8 9 9 12 11 10 11 13 19 21 20 21 19 18 17 17 18 18 17 15
14 14 13 12 13 13 13 13 13 12 11 10 8 7 7 8 10 10 10 10 10 16 19 18 20 18 17 15 16 16 16 14 16
15 14 13 14 13 14 14 13 13 13 11 10 9 7 7 7 6 10 9 11 10 11 19 17 18 16 15 15 15 13 13 13 13
16 14 15 15 14 14 14 15 13 13 14 12 11 8 8 7 6 7 9 9 9 6 14 13 14 13 14 13 12 13 13 13 12
17 15 16 16 17 17 17 16 18 14 15 13 12 9 8 7 7 5 7 8 9 7 8 11 12 13 15 11 12 12 11 12 11
18 17 17 17 17 18 18 18 16 14 17 10 10 8 5 5 5 5 6 7 8 8 7 7 9 9 9 10 12 7 8 9 10
18 18 17 18 17 19 20 19 17 14 15 16 3 5 7 12 4 4 5 7 8 8 8 7 7 7 8 7 9 10 7 7 8
19 18 18 19 17 19 20 19 19 17 19 16 3 2 9 7 8 6 6 5 7 8 7 7 7 8 7 9 9 10 7 5 6
21 20 20 20 17 18 20 21 21 19 18 17 10 7 4 5 7 11 10 7 6 6 8 9 7 6 7 7 7 7 5 4 5
Wind_Direction
138 134 135 138 134 135 128 127 128 119 120 115 112 112 120 132 102 100 88 88 94 91 90 87 80 75 82 80 79 78 75 73 72
138 137 140 143 138 136 127 123 116 116 120 116 113 111 115 108 102 97 92 97 98 93 91 91 88 86 84 85 81 76 75 73 72
143 142 143 143 142 137 129 125 124 123 121 118 114 106 121 106 100 99 87 90 100 98 90 87 90 95 91 89 80 76 77 76 75
146 146 147 146 143 133 128 124 122 119 116 113 104 99 71 106 105 115 102 97 97 96 103 98 82 105 96 84 81 83 84 85 82
145 146 148 144 136 130 126 122 120 117 114 108 105 119 171 103 102 92 105 99 100 98 96 100 91 86 89 88 87 79 79 80 75
153 137 146 140 132 129 125 121 119 113 103 99 106 158 87 80 71 89 100 103 110 108 105 95 104 90 87 89 85 78 72 69 68
153 143 147 136 133 128 128 123 131 144 127 121 143 113 104 87 125 107 104 107 113 110 104 100 98 97 93 86 78 75 73 73 74
155 150 153 144 147 136 132 142 142 133 132 134 129 119 103 82 84 84 119 121 122 120 109 102 100 96 85 82 81 80 77 78 75
164 162 160 155 158 148 150 147 140 135 137 133 131 122 102 77 82 77 63 113 122 113 108 105 92 87 86 86 84 84 82 83 81
172 164 164 161 159 154 149 146 141 136 130 131 125 125 108 93 78 78 50 116 117 116 115 101 95 92 90 90 89 91 91 91 89
179 170 165 157 160 152 148 146 143 136 132 131 130 123 111 99 78 71 66 60 121 121 111 103 99 94 95 95 94 94 93 87 82
177 172 168 157 155 147 143 140 142 135 132 128 127 123 124 110 85 61 65 58 67 114 107 105 104 107 106 103 93 90 85 80 81
179 171 169 163 155 154 152 152 151 144 141 131 120 116 111 112 101 73 61 66 65 97 106 111 111 111 107 106 100 90 85 88 82
182 175 164 163 164 163 157 152 152 147 137 128 117 109 104 101 106 98 64 57 62 90 95 97 104 109 117 113 106 105 100 87 81
182 178 171 167 166 168 165 158 154 154 140 127 112 102 99 98 91 101 87 64 52 68 113 113 98 107 114 115 118 110 101 91 79
184 181 175 175 174 177 170 160 152 150 145 126 113 95 90 95 107 117 124 112 92 71 117 126 123 96 83 98 108 104 99 91 80
186 180 180 181 179 174 171 165 159 158 169 159 139 144 132 110 108 127 135 123 109 102 123 141 134 128 102 79 62 85 106 109 93
190 188 184 184 181 174 178 172 171 168 183 183 153 161 174 149 155 156 151 157 148 134 130 130 129 130 119 113 77 52 81 100 101
192 189 189 187 187 183 183 180 181 178 185 184 214 332 133 173 165 186 169 179 169 154 151 149 139 139 127 96 76 61 71 89 97
193 193 192 192 193 191 188 190 193 193 187 192 171 160 152 161 157 172 175 179 187 176 170 165 160 145 140 127 94 72 83 87 92